{"data":{"norad_id":53846,"intl_designator":"2022-114AE","name":"STARLINK-4746","alt_names":[],"object_type":"PAYLOAD","status":"ACTIVE","operator":null,"country":"US","launch_date":"2022-09-19","launch_site_code":"AFETR","launch_vehicle":null,"mission":null,"orbit_class":"UNKNOWN","rcs_meters":null,"size_class":null,"mass_kg":null,"dimensions":null,"purposes":["comms"],"wikipedia_slug":null,"has_3d_model":false,"image_url":null,"decayed_at":null,"tle_current":{"epoch":"2026-09-20T22:00:03.000096Z","epoch_age_seconds":48100,"freshness":"FRESH","line1":"1 53846U 22114AE  26263.91670139  .00024533  00000+0  12862-2 0  9998","line2":"2 53846  53.1604 136.6935 0001485 107.5911  96.1629 15.15657949  5754","mean_motion":15.15657949,"eccentricity":0.0001485,"inclination_deg":53.1604,"raan_deg":136.6935,"arg_perigee_deg":107.5911,"mean_anomaly_deg":96.1629,"bstar":0.0012862,"rev_number":575,"period_min":95.008243842226,"perigee_km":517.9575836497,"apogee_km":520.00602793502,"semimajor_km":6897.1188057924,"source":"CELESTRAK","updated_at":"2026-09-21T09:00:33.022165Z"}}}